Regional Weather Roundup
Issued by NWS State College, PA

Home | Current Version | Previous Version | Text Only | Print | Product List | Glossary Off
Versions: 1 2 3 4 5 6 7 8 9 10 11 12 13 14 15 16 17 18 19 20 21 22 23 24 25 26 27 28 29 30 31 32 33 34 35 36 37 38 39 40 41 42 43 44 45 46 47 48 49 50

000
ASUS41 KCTP 301403
RWRCTP

REGIONAL WEATHER ROUNDUP
NATIONAL WEATHER SERVICE STATE COLLEGE PA
900 AM EST FRI JAN 30 2015

Note: "fair" indicates few or no clouds below 12,000 feet with no
significant weather and/or obstructions to visibility.

* = STATION THAT DOES NOT REPORT PRECIPITATION /E.G. RAIN...SNOW...ETC/
    THUNDER OR FOG.

PAZ002>004-007>009-013>016-020>023-029>032-301500-
WESTERN PENNSYLVANIA

CITY           SKY/WX    TMP DP  RH WIND       PRES   REMARKS
ERIE           LGT SNOW  19  13  77 NW10G18   30.19R VSB 3/4 WCI   7
MEADVILLE      SNOW      17  13  84 NW15G25   30.11R VSB 1/4 WCI   2
FRANKLIN*      CLOUDY    18  10  73 NW13G24   30.10R WCI   4
NEW CASTLE     FLURRIES  19  13  77 W10G21    30.20R WCI   7
BEAVER COUNTY  LGT SNOW  21  16  79 NW13G22   30.16R WCI   9
BUTLER*        CLOUDY    21  12  68 W13G23    30.15R WCI   9
PITTSBURGH INT FLURRIES  22  15  75 NW23G29   30.15R WCI   6
PITTSBURGH     LGT SNOW  23  16  74 NW14G26   30.12R VSB 1   WCI  11
INDIANA*       CLOUDY    23  18  80 NW13G23   30.10R WCI  11
LATROBE        CLOUDY    25  19  80 NW14G24   30.12R WCI  13
WASHINGTON CO* CLOUDY    25  16  68 NW9G21    30.17R
$$

PAZ004>006-010>012-017>019-024>028-033>037-041-042-045-046-049>053-301500-
CENTRAL PENNSYLVANIA

CITY           SKY/WX    TMP DP  RH WIND       PRES   REMARKS
BRADFORD       LGT SNOW  21  15  78 W15G22    29.94R VSB 3/4 WCI   8
DUBOIS         CLOUDY    21  16  81 W17G25    29.99R HAZE    WCI   7
CLEARFIELD     LGT SNOW  24  18  77 NW16G28   29.99R WCI  11
JOHNSTOWN      SNOW      22  18  85 NW21G29   29.95R VSB 1/2 WCI   6
ALTOONA        LGT SNOW  27  21  78 NW18G25   29.99R VSB 1   WCI  14
STATE COLLEGE  CLOUDY    28  21  74 NW14      29.98R
WILLIAMSPORT   CLOUDY    31  21  66 W10       29.95R
SELINSGROVE    CLOUDY    34  23  64 NW12G20   29.97R
FT INDIANTOWN  CLOUDY    33  24  69 W15G25    29.94R
CAPITAL CITY   PTSUNNY   35  24  64 W14       29.96R
HARRISBURG     CLOUDY    34  25  69 NW17      29.95R
YORK           CLOUDY    34  23  64 W8        29.97R
$$

PAZ038>040-043-044-047-048-054-055-060>062-067>071-301500-
EASTERN PENNSYLVANIA

CITY           SKY/WX    TMP DP  RH WIND       PRES   REMARKS
SCRANTON       SNOW      28  25  88 SW7       29.88R VSB 1/4
MOUNT POCONO   LGT SNOW  26  22  84 NW17G28   29.78R VSB 3/4 WCI  13
ALLENTOWN      LGT SNOW  32  27  80 W7        29.90R
QUAKERTOWN*    PTSUNNY   32  27  80 W7        29.90R
READING        PTSUNNY   32  27  81 W10       29.93R
LANCASTER      CLOUDY    30  26  85 W9        29.94R
COATESVILLE    LGT SNOW  32  32 100 NW15G22   29.93R
POTTSTOWN      CLOUDY    31  27  85 W8        29.92R
BLUE BELL      MOSUNNY   34  28  80 W5        29.91R
DOYLESTOWN     CLOUDY    31  26  82 W12       29.90R
WILLOW GROVE   NOT AVBL
NORTH PHILA    CLOUDY    35  24  64 W9        29.94R
PHILADELPHIA   CLOUDY    36  25  64 NW13      29.94R
$$


USA.gov is the U.S. government's official web portal to all federal, state and local government web resources and services.